Weather History for KSMQ - July, 2012

Change the Weather History Date:

Wednesday, July 4, 2012

  Actual Average Record
Temperature  
Mean Temperature 82 °F -  
Max Temperature 93 °F 83 °F 104 °F (1949)
Min Temperature 70 °F 60 °F 46 °F (1986)
Cooling Degree Days 16    
Growing Degree Days 32 (Base 50)    
Moisture  
Dew Point 67 °F    
Average Humidity 67    
Maximum Humidity 97    
Minimum Humidity 42    
Precipitation  
Precipitation 0.03 in - - ()
Sea Level Pressure  
Sea Level Pressure 29.78 in    
Wind  
Wind Speed 2 mph (NW)    
Max Wind Speed 8 mph    
Max Gust Speed -    
Visibility 10 miles    
Events Rain    
Averages and records for this station are not official NWS values.
T = Trace of Precipitation, MM = Missing Value Source: NWS Daily Summary

Daily Weather History Graph

Daily Weather History Graph

Search for Another Location

Airport or City:

Trip Planner

Search our weather history database for the weather conditions in past years. The results will help you decide how hot, cold, wet, or windy it might be!

Date:

Astronomy

Jul. 04, 2012 Rise Set
Actual Time 5:33 AM EDT 8:32 PM EDT
Civil Twilight 5:00 AM EDT 9:05 PM EDT
Nautical Twilight 4:18 AM EDT 9:47 PM EDT
Astronomical Twilight 3:29 AM EDT 10:36 PM EDT
Moon 9:09 PM EDT (7/4) 6:33 AM EDT (7/4)
Length of Visible Light 16h 05m
Length of Day
14h 59m
Full, 99% of the Moon is Illuminated
Jul 4
Full
Jul 10
Last Quarter
Jul 19
New
Jul 26
First Quarter
Aug 1
Full

Hourly Weather History & Observations

Time (EDT) Temp. Heat Index Dew Point Humidity Pressure Visibility Wind Dir Wind Speed Gust Speed Precip Events Conditions
12:53 AM 72.0 °F - 66.9 °F 84% 29.82 in 10.0 mi Calm Calm - N/A   Scattered Clouds
1:53 AM 72.0 °F - 68.0 °F 87% 29.81 in 10.0 mi Calm Calm - N/A   Clear
2:53 AM 71.1 °F - 66.9 °F 87% 29.80 in 10.0 mi Calm Calm - N/A   Clear
3:53 AM 71.6 °F - 66.2 °F 83% 29.81 in 10.0 mi Calm Calm - N/A   Clear
4:53 AM 70.0 °F - 66.0 °F 87% 29.81 in 10.0 mi Calm Calm - N/A   Mostly Cloudy
5:53 AM 71.1 °F - 68.0 °F 90% 29.82 in 9.0 mi North 3.5 mph - 0.02 in Rain Light Rain
6:53 AM 70.0 °F - 69.1 °F 97% 29.84 in 4.0 mi Calm Calm - 0.01 in   Mostly Cloudy
7:53 AM 71.1 °F - 70.0 °F 96% 29.85 in 5.0 mi Calm Calm - 0.00 in   Mostly Cloudy
8:53 AM 73.9 °F - 70.0 °F 87% 29.85 in 10.0 mi Calm Calm - 0.00 in   Mostly Cloudy
9:53 AM 79.0 °F - 68.0 °F 69% 29.83 in 10.0 mi Variable 4.6 mph - N/A   Clear
10:53 AM 82.9 °F 84.6 °F 64.9 °F 54% 29.81 in 10.0 mi NW 8.1 mph - N/A   Clear
11:53 AM 86.0 °F 87.6 °F 64.9 °F 49% 29.80 in 10.0 mi North 3.5 mph - N/A   Clear
12:53 PM 90.0 °F 92.4 °F 66.0 °F 45% 29.79 in 10.0 mi Variable 6.9 mph - N/A   Clear
1:53 PM 90.0 °F 92.8 °F 66.9 °F 46% 29.78 in 10.0 mi WNW 6.9 mph - N/A   Partly Cloudy
2:53 PM 91.9 °F 94.5 °F 66.0 °F 42% 29.77 in 10.0 mi Variable 5.8 mph - N/A   Clear
3:53 PM 93.0 °F 96.4 °F 66.9 °F 42% 29.75 in 10.0 mi Variable 4.6 mph - N/A   Clear
4:53 PM 91.9 °F 95.4 °F 66.9 °F 44% 29.74 in 10.0 mi Variable 4.6 mph - N/A   Partly Cloudy
5:53 PM 91.4 °F 94.0 °F 66.2 °F 43% 29.73 in 10.0 mi West 3.5 mph - N/A   Clear
6:53 PM 90.0 °F 92.8 °F 66.9 °F 46% 29.72 in 10.0 mi Calm Calm - N/A   Clear
7:53 PM 87.1 °F 89.2 °F 66.0 °F 49% 29.71 in 10.0 mi Calm Calm - N/A   Clear
8:53 PM 82.0 °F 84.9 °F 68.0 °F 62% 29.73 in 10.0 mi Calm Calm - N/A   Mostly Cloudy
9:53 PM 80.6 °F 83.9 °F 69.8 °F 70% 29.75 in 10.0 mi Calm Calm - N/A   Mostly Cloudy
10:53 PM 78.1 °F - 69.1 °F 74% 29.74 in 10.0 mi Calm Calm - N/A   Mostly Cloudy
11:53 PM 75.9 °F - 71.1 °F 85% 29.74 in 9.0 mi Calm Calm - N/A   Partly Cloudy